Location: Avully
(45.9633°N, 6.0228°E)
Time: 06:28:46
(UTC+00:00)

SL-8 R/B - Pass Details

Date: 23 May 2024
Orbit: 652 x 662 km, 48.4° (Epoch: 19 June)

Event Time Altitude Azimuth Distance (km) Brightness Sun altitude
Rises 00:58:14 0° 289° (WNW) 2,976 7.0 -20.6°
Reaches altitude 10° 01:00:35 10° 287° (WNW) 2,065 6.2 -20.5°
Maximum altitude 01:05:19 69° 205° (SSW) 703 3.5 -20.2°
Drops below altitude 10° 01:10:03 10° 123° (ESE) 2,064 6.1 -19.8°
Sets 01:12:24 0° 121° (ESE) 2,976 7.0 -19.7°
